Date String (YYYY-MM-DD hh:mm:ss) UTC,Instrument flags,absolute air pressure of the measurement (hPa),sample flow rate (lpm),inlet stack bypass flow (lpm),air temperature of the measurement (°C),ambient temperature measured by the external sensor (°C),aerosol sample conditioner tube jacket temperature (°C),OPC LED temperature (°C),internal box temperature (°C),relative humidity of the measurement (%),span deviation,mass concentration of particles derived from Lorenz-Mie calculation of OPC scattering (μg/m³),mass concentration of particles derived from Lorenz-Mie calculation of OPC scattering (μg/m³),mass concentration of particles derived from Lorenz-Mie calculation of OPC scattering (μg/m³)
DateTimeUTC,F1_M11,P_M11,Q1_M11,Q2_M11,T1_M11,T2_M11,T3_M11,T4_M11,T5_M11,U1_M11,ZSPAN_M11,X0_M11,X2_M11,X1_M11
2023-06-28 00:00:00,SystemResetWarning,0823.6,5.01,000.00,029.3,024.6,000.0,037.6,030.9,19.2,0000.0,0016.69,0004.68,0003.58
2023-06-28 00:01:00,SystemResetWarning,0823.6,5.01,000.00,029.3,025.1,000.0,037.6,030.8,18.7,0000.0,0016.77,0004.70,0003.58
2023-06-28 00:02:00,SystemResetWarning,0823.7,4.99,000.00,029.2,025.5,000.0,037.6,030.6,18.6,0000.0,0016.58,0004.70,0003.58
2023-06-28 00:03:00,SystemResetWarning,0823.8,5.00,000.00,029.2,026.0,000.0,037.6,030.7,19.1,0000.0,0016.47,0004.74,0003.57
2023-06-28 00:04:00,SystemResetWarning,0823.8,4.99,000.00,029.2,026.5,000.0,037.6,030.8,19.4,0000.0,0019.17,0004.88,0003.58
2023-06-28 00:05:00,SystemResetWarning,0823.8,4.99,000.00,029.3,026.9,000.0,037.7,030.9,24.2,0000.0,0019.90,0004.90,0003.58
2023-06-28 00:06:00,SystemResetWarning,0823.7,5.00,000.00,029.3,027.4,000.0,037.7,031.0,22.3,0000.0,0020.67,0004.95,0003.59
2023-06-28 00:07:00,SystemResetWarning,0823.6,5.01,000.00,029.3,027.7,000.0,037.7,031.0,22.2,0000.0,0020.12,0004.92,0003.59
2023-06-28 00:08:00,SystemResetWarning,0823.8,5.00,000.00,029.4,027.8,000.0,037.7,031.2,18.7,0000.0,0018.53,0004.85,0003.59
2023-06-28 00:09:00,SystemResetWarning,0823.8,4.97,000.00,029.4,026.1,000.0,037.7,031.1,19.1,0000.0,0018.24,0004.83,0003.59
2023-06-28 00:10:00,SystemResetWarning,0823.8,5.02,000.00,029.3,024.7,000.0,037.6,030.9,19.5,0000.0,0018.34,0004.76,0003.61
2023-06-28 00:11:00,SystemResetWarning,0823.8,5.01,000.00,029.3,025.1,000.0,037.6,030.9,19.6,0000.0,0017.51,0004.79,0003.65
2023-06-28 00:12:00,SystemResetWarning,0823.8,5.00,000.00,029.3,025.5,000.0,037.6,030.8,17.7,0000.0,0017.92,0004.88,0003.71
2023-06-28 00:13:00,SystemResetWarning,0823.7,5.00,000.00,029.3,026.0,000.0,037.6,030.8,19.5,0000.0,0020.52,0004.95,0003.76
2023-06-28 00:14:00,SystemResetWarning,0823.7,5.00,000.00,029.3,026.5,000.0,037.7,030.9,19.8,0000.0,0021.71,0005.01,0003.82
2023-06-28 00:15:00,SystemResetWarning,0823.8,5.00,000.00,029.3,027.0,000.0,037.7,030.9,20.8,0000.0,0019.63,0004.98,0003.86
2023-06-28 00:16:00,SystemResetWarning,0823.8,4.99,000.00,029.3,027.4,000.0,037.7,031.0,21.0,0000.0,0019.76,0005.01,0003.89
2023-06-28 00:17:00,SystemResetWarning,0823.8,4.99,000.00,029.4,027.5,000.0,037.7,031.1,18.7,0000.0,0018.23,0004.96,0003.91
2023-06-28 00:18:00,SystemResetWarning,0823.8,4.99,000.00,029.4,026.0,000.0,037.7,031.0,18.8,0000.0,0017.12,0004.94,0003.93
2023-06-28 00:19:00,SystemResetWarning,0823.8,5.01,000.00,029.3,024.5,000.0,037.6,031.0,20.3,0000.0,0016.72,0004.93,0003.96
2023-06-28 00:20:00,SystemResetWarning,0823.8,5.01,000.00,029.3,024.8,000.0,037.6,030.9,20.2,0000.0,0016.19,0004.94,0003.99
2023-06-28 00:21:00,SystemResetWarning,0823.8,5.01,000.00,029.2,025.3,000.0,037.6,030.6,22.4,0000.0,0015.81,0004.97,0004.02
2023-06-28 00:22:00,SystemResetWarning,0823.9,4.99,000.00,029.2,025.8,000.0,037.6,030.7,25.0,0000.0,0016.55,0004.98,0004.03
2023-06-28 00:23:00,SystemResetWarning,0823.9,5.00,000.00,029.2,026.4,000.0,037.6,030.8,24.4,0000.0,0017.62,0004.93,0004.01
2023-06-28 00:24:00,SystemResetWarning,0823.9,5.00,000.00,029.2,026.9,000.0,037.6,030.9,25.2,0000.0,0016.10,0004.91,0003.99
2023-06-28 00:25:00,SystemResetWarning,0823.9,4.99,000.00,029.3,027.3,000.0,037.7,031.0,25.5,0000.0,0015.63,0004.92,0003.98
2023-06-28 00:26:00,SystemResetWarning,0823.9,4.99,000.00,029.3,027.6,000.0,037.7,031.0,24.2,0000.0,0015.66,0004.89,0003.96
2023-06-28 00:27:00,SystemResetWarning,0823.9,5.01,000.00,029.4,027.8,000.0,037.7,031.1,24.2,0000.0,0014.85,0004.90,0003.97
2023-06-28 00:28:00,SystemResetWarning,0823.9,4.99,000.00,029.4,026.4,000.0,037.7,031.1,24.2,0000.0,0015.39,0004.96,0003.99
2023-06-28 00:29:00,SystemResetWarning,0823.8,5.01,000.00,029.3,024.7,000.0,037.6,031.0,23.4,0000.0,0015.71,0005.01,0004.02
2023-06-28 00:30:00,SystemResetWarning,0823.8,5.01,000.00,029.3,024.8,000.0,037.6,030.9,21.8,0000.0,0016.04,0005.08,0004.06
2023-06-28 00:31:00,SystemResetWarning,0823.8,4.99,000.00,029.2,025.3,000.0,037.6,030.7,21.6,0000.0,0016.64,0005.11,0004.09
2023-06-28 00:32:00,SystemResetWarning,0823.8,5.00,000.00,029.2,025.8,000.0,037.6,030.7,20.6,0000.0,0016.87,0005.19,0004.12
2023-06-28 00:33:00,SystemResetWarning,0823.8,5.00,000.00,029.2,026.3,000.0,037.6,030.8,19.6,0000.0,0016.42,0005.18,0004.13
2023-06-28 00:34:00,SystemResetWarning,0823.8,4.99,000.00,029.2,026.8,000.0,037.7,030.9,21.1,0000.0,0015.71,0005.22,0004.16
2023-06-28 00:35:00,SystemResetWarning,0823.9,4.99,000.00,029.3,027.2,000.0,037.7,031.0,20.1,0000.0,0015.78,0005.28,0004.20
2023-06-28 00:36:00,SystemResetWarning,0823.9,5.00,000.00,029.3,027.5,000.0,037.7,031.0,21.2,0000.0,0015.71,0005.32,0004.24
2023-06-28 00:37:00,SystemResetWarning,0823.9,5.00,000.00,029.4,027.4,000.0,037.7,031.1,20.7,0000.0,0015.17,0005.37,0004.28
2023-06-28 00:38:00,SystemResetWarning,0823.9,4.99,000.00,029.3,025.5,000.0,037.7,031.0,21.0,0000.0,0014.67,0005.40,0004.30
2023-06-28 00:39:00,SystemResetWarning,0823.9,5.01,000.00,029.3,024.5,000.0,037.6,030.9,20.3,0000.0,0014.29,0005.41,0004.32
2023-06-28 00:40:00,SystemResetWarning,0823.9,5.00,000.00,029.2,024.9,000.0,037.6,030.8,19.8,0000.0,0014.55,0005.39,0004.33
2023-06-28 00:41:00,SystemResetWarning,0823.8,5.00,000.00,029.2,025.4,000.0,037.6,030.6,20.1,0000.0,0014.25,0005.37,0004.32
2023-06-28 00:42:00,SystemResetWarning,0823.8,5.01,000.00,029.2,025.9,000.0,037.6,030.7,19.8,0000.0,0013.79,0005.37,0004.30
2023-06-28 00:43:00,SystemResetWarning,0823.8,4.99,000.00,029.2,026.4,000.0,037.6,030.8,19.8,0000.0,0013.69,0005.40,0004.30
2023-06-28 00:44:00,SystemResetWarning,0823.9,5.00,000.00,029.2,026.9,000.0,037.6,030.9,20.7,0000.0,0014.12,0005.46,0004.31
2023-06-28 00:45:00,SystemResetWarning,0824.0,5.01,000.00,029.2,027.3,000.0,037.7,031.0,21.0,0000.0,0013.93,0005.51,0004.35
2023-06-28 00:46:00,SystemResetWarning,0824.0,5.01,000.00,029.3,027.6,000.0,037.7,031.1,22.3,0000.0,0013.64,0005.53,0004.38
2023-06-28 00:47:00,SystemResetWarning,0824.0,4.99,000.00,029.4,027.6,000.0,037.7,031.1,22.8,0000.0,0013.00,0005.53,0004.40
2023-06-28 00:48:00,SystemResetWarning,0823.9,5.00,000.00,029.4,025.8,000.0,037.7,031.1,21.9,0000.0,0012.81,0005.51,0004.41
2023-06-28 00:49:00,SystemResetWarning,0824.0,5.01,000.00,029.3,024.6,000.0,037.6,030.9,21.0,0000.0,0012.53,0005.49,0004.44
2023-06-28 00:50:00,SystemResetWarning,0823.9,5.01,000.00,029.3,024.9,000.0,037.6,030.9,21.7,0000.0,0013.01,0005.52,0004.47
2023-06-28 00:51:00,SystemResetWarning,0824.0,5.00,000.00,029.2,025.3,000.0,037.6,030.7,21.5,0000.0,0012.52,0005.53,0004.49
2023-06-28 00:52:00,SystemResetWarning,0824.0,5.00,000.00,029.2,025.9,000.0,037.6,030.7,20.3,0000.0,0012.64,0005.54,0004.52
2023-06-28 00:53:00,SystemResetWarning,0824.0,5.00,000.00,029.2,026.4,000.0,037.6,030.8,21.1,0000.0,0013.92,0005.57,0004.56
2023-06-28 00:54:00,SystemResetWarning,0824.1,5.00,000.00,029.2,026.9,000.0,037.6,030.9,20.4,0000.0,0015.21,0005.56,0004.59
2023-06-28 00:55:00,SystemResetWarning,0824.2,5.00,000.00,029.3,027.3,000.0,037.7,031.0,21.5,0000.0,0015.53,0005.54,0004.60
2023-06-28 00:56:00,SystemResetWarning,0824.2,5.01,000.00,029.3,027.6,000.0,037.7,031.1,21.4,0000.0,0015.64,0005.54,0004.59
2023-06-28 00:57:00,SystemResetWarning,0824.2,4.99,000.00,029.4,026.9,000.0,037.7,031.1,21.8,0000.6,0015.37,0005.57,0004.58
2023-06-28 00:58:00,SystemResetWarning,0824.1,5.00,000.00,029.3,024.9,000.0,037.6,031.0,21.5,0000.2,0017.06,0005.58,0004.58
2023-06-28 00:59:00,SystemResetWarning,0824.1,5.02,000.00,029.3,024.5,000.0,037.6,030.9,21.9,0000.6,0017.61,0005.60,0004.58
